Regional Weather Roundup
Issued by NWS

Current Version | Previous Version | Text Only | Print | Product List | Glossary On
Versions: 1 2 3 4 5 6 7 8 9 10 11 12 13 14 15 16 17 18 19 20 21 22 23 24 25 26 27 28 29 30 31 32 33 34 35 36 37 38 39 40 41 42 43 44 45 46 47 48 49 50
000
ASUS43 KTOP 271008
RWRKS

WEATHER ROUNDUP FOR KANSAS
NATIONAL WEATHER SERVICE GOODLAND KS
500 AM CDT WED MAY 27 2015

NOTE:  "FAIR" INDICATES FEW OR NO CLOUDS BELOW 12,000 FEET WITH NO
SIGNIFICANT WEATHER AND/OR OBSTRUCTIONS TO VISIBILITY.

KSZ001>006-013>018-027>032-041>047-271100-
NORTHWEST KANSAS

CITY           SKY/WX    TMP DP  RH WIND       PRES   REMARKS
GOODLAND       CLOUDY    54  52  93 SE13      30.06F
HAYS           PTCLDY    54  46  76 NW5       30.05S
HILL CITY      PTCLDY    50  48  93 SW3       30.06R
RUSSELL        CLEAR     55  51  86 CALM      30.04R
$$

KSZ061>065-074>080-084>089-271100-
SOUTHWEST KANSAS

CITY           SKY/WX    TMP DP  RH WIND       PRES   REMARKS
DODGE CITY     MOCLDY    57  54  89 CALM      30.07R
ELKHART          N/A     55  48  77 S9          N/A
GARDEN CITY    CLOUDY    57  55  93 SE6       30.06R
GREAT BEND     PTCLDY    57  52  82 CALM      30.05R
LIBERAL        CLOUDY    63  55  77 SE3       30.07F
PRATT          PTCLDY    59  57  94 CALM      30.06R
$$

KSZ066>073-081>083-090>101-271100-
SOUTHEAST KANSAS

CITY           SKY/WX    TMP DP  RH WIND       PRES   REMARKS
CHANUTE        CLEAR     61  60  97 CALM      30.02R
COFFEYVILLE    PTCLDY    62  61  96 N3        30.02R
HUTCHINSON     CLEAR     60  54  80 N5        30.04R
MEDICINE LODGE   N/A     57  57 100 NE3       30.03R
NEWTON         CLEAR     61  52  72 NE7       30.05S
PARSONS        CLEAR     63  63 100 CALM      30.03R
WICHITA INTL   PTCLDY    60  58  92 CALM      30.03R
WICHITA JABRA  CLEAR     62  60  93 CALM      30.03R
WICHITA MCCONL CLEAR     61  60  97 NW5       30.03R
WINFIELD       CLEAR     60  58  92 NE3       30.04R
$$

KSZ007>012-019>026-033>040-048>060-102>105-271100-
NORTHEAST KANSAS

CITY           SKY/WX    TMP DP  RH WIND       PRES   REMARKS
CONCORDIA      CLEAR     54  50  86 CALM      30.03R
EMPORIA        PTCLDY    59  56  89 NW5       30.03R
LAWRENCE       CLOUDY    59  57  93 CALM      30.02R
MANHATTAN      CLEAR     53  52  96 CALM      30.03R
MARYSVILLE     CLEAR     50  50 100 CALM      30.03R
OLATHE IND     PTCLDY    61  58  90 W3        30.03R
OLATHE EXE     MOCLDY    61  58  90 W3        30.02R
SALINA         CLEAR     59  55  87 CALM      30.03S
TOPEKA BILLARD MOCLDY    60  57  89 W3        30.02R
TOPEKA FORBES  PTCLDY    58  55  90 SW3       30.03R
$$


USA.gov is the U.S. government's official web portal to all federal, state and local government web resources and services.